INMARSAT 5-F4

Last updated on Sun Jun 21 2026 00:03:07 GMT+0000 (Coordinated Universal Time)

1 42698U 17025A 26171.40325053 .00000071 00000+0 00000+0 0 9999 2 42698 0.0186 19.3734 0000687 350.8599 100.0381 1.00271389 33317
UTC large
Height (km)
Speed (km/s)
/
Latitude / Longitude
Inclination (degrees)
Orbital Period (minutes)
Azimuth
Elevation
Range (km)
Doppler Factor

Next 0 passes for location: London (51.5072 / 0.1276)

No passes found over London.
INMARSAT 5-F4